Time,TemperatureF,DewpointF,PressureIn,WindDirection,WindDirectionDegrees,WindSpeedMPH,WindSpeedGustMPH,Humidity,HourlyPrecipIn,Conditions,Clouds,dailyrainin,SoftwareType,DateUTC
2013-02-25 00:32:00,40.0,-99.9,-100.00,West,269,3.0,4.0,-999,-99.99,,,-99.99,,2013-02-25 08:32:00,
2013-02-25 00:42:00,40.0,-99.9,-100.00,West,269,3.0,4.0,-999,-99.99,,,-99.99,,2013-02-25 08:42:00,
2013-02-25 00:52:00,39.0,-99.9,-100.00,WSW,248,3.0,4.0,-999,-99.99,,,-99.99,,2013-02-25 08:52:00,
2013-02-25 01:02:00,39.0,-99.9,-100.00,WSW,248,3.0,4.0,-999,-99.99,,,-99.99,,2013-02-25 09:02:00,
2013-02-25 01:32:00,39.0,-99.9,-100.00,East,99,1.0,2.0,-999,-99.99,,,-99.99,,2013-02-25 09:32:00,
2013-02-25 01:42:00,39.0,-99.9,-100.00,East,99,1.0,2.0,-999,-99.99,,,-99.99,,2013-02-25 09:42:00,
2013-02-25 01:52:00,39.0,-99.9,-100.00,East,99,1.0,2.0,-999,-99.99,,,-99.99,,2013-02-25 09:52:00,
2013-02-25 02:01:00,40.0,-99.9,-100.00,WSW,250,2.0,2.0,-999,-99.99,,,-99.99,,2013-02-25 10:01:00,
2013-02-25 02:11:00,40.0,-99.9,-100.00,WSW,250,2.0,2.0,-999,-99.99,,,-99.99,,2013-02-25 10:11:00,
2013-02-25 02:32:00,40.0,-99.9,-100.00,SW,228,1.0,2.0,-999,-99.99,,,-99.99,,2013-02-25 10:32:00,
2013-02-25 02:42:00,40.0,-99.9,-100.00,SW,228,1.0,2.0,-999,-99.99,,,-99.99,,2013-02-25 10:42:00,
2013-02-25 02:52:00,40.0,-99.9,-100.00,SW,228,1.0,2.0,-999,-99.99,,,-99.99,,2013-02-25 10:52:00,
2013-02-25 03:20:00,37.0,-99.9,-100.00,SSW,205,1.0,3.0,-999,-99.99,,,-99.99,,2013-02-25 11:20:00,
2013-02-25 03:32:00,38.0,-99.9,-100.00,WNW,294,0.0,2.0,-999,-99.99,,,-99.99,,2013-02-25 11:32:00,
2013-02-25 03:42:00,38.0,-99.9,-100.00,WNW,294,0.0,2.0,-999,-99.99,,,-99.99,,2013-02-25 11:42:00,
2013-02-25 03:52:00,38.0,-99.9,-100.00,WNW,294,0.0,2.0,-999,-99.99,,,-99.99,,2013-02-25 11:52:00,
2013-02-25 04:02:00,37.0,-99.9,-100.00,SSW,205,1.0,3.0,-999,-99.99,,,-99.99,,2013-02-25 12:02:00,
2013-02-25 04:10:00,37.0,-99.9,-100.00,West,264,5.0,5.0,-999,-99.99,,,-99.99,,2013-02-25 12:10:00,
2013-02-25 04:11:00,37.0,-99.9,-100.00,SSW,205,1.0,3.0,-999,-99.99,,,-99.99,,2013-02-25 12:11:00,
2013-02-25 04:32:00,37.0,-99.9,-100.00,West,278,3.0,3.0,-999,-99.99,,,-99.99,,2013-02-25 12:32:00,
2013-02-25 04:42:00,37.0,-99.9,-100.00,West,278,3.0,3.0,-999,-99.99,,,-99.99,,2013-02-25 12:42:00,
2013-02-25 04:57:00,37.0,-99.9,-100.00,West,264,5.0,5.0,-999,-99.99,,,-99.99,,2013-02-25 12:57:00,
2013-02-25 05:03:00,37.0,-99.9,-100.00,West,264,5.0,5.0,-999,-99.99,,,-99.99,,2013-02-25 13:03:00,
2013-02-25 05:32:00,37.0,-99.9,-100.00,WSW,244,2.0,3.0,-999,-99.99,,,-99.99,,2013-02-25 13:32:00,
2013-02-25 05:42:00,37.0,-99.9,-100.00,WSW,244,2.0,3.0,-999,-99.99,,,-99.99,,2013-02-25 13:42:00,
2013-02-25 05:53:00,36.0,-99.9,-100.00,WNW,283,1.0,2.0,-999,-99.99,,,-99.99,,2013-02-25 13:53:00,
2013-02-25 06:04:00,36.0,-99.9,-100.00,WNW,283,1.0,2.0,-999,-99.99,,,-99.99,,2013-02-25 14:04:00,
2013-02-25 06:32:00,40.0,-99.9,-100.00,WNW,295,1.0,9.0,-999,-99.99,,,-99.99,,2013-02-25 14:32:00,
2013-02-25 06:42:00,40.0,-99.9,-100.00,WNW,295,1.0,9.0,-999,-99.99,,,-99.99,,2013-02-25 14:42:00,
2013-02-25 06:52:00,40.0,-99.9,-100.00,WNW,295,1.0,9.0,-999,-99.99,,,-99.99,,2013-02-25 14:52:00,
2013-02-25 07:22:00,38.0,-99.9,-100.00,NE,51,4.0,5.0,-999,-99.99,,,-99.99,,2013-02-25 15:22:00,
2013-02-25 07:32:00,39.0,-99.9,-100.00,East,92,3.0,4.0,-999,-99.99,,,-99.99,,2013-02-25 15:32:00,
2013-02-25 07:42:00,39.0,-99.9,-100.00,East,92,3.0,4.0,-999,-99.99,,,-99.99,,2013-02-25 15:42:00,
2013-02-25 07:52:00,39.0,-99.9,-100.00,East,92,3.0,4.0,-999,-99.99,,,-99.99,,2013-02-25 15:52:00,
2013-02-25 08:10:00,42.0,-99.9,-100.00,West,265,2.0,2.0,-999,-99.99,,,-99.99,,2013-02-25 16:10:00,
2013-02-25 08:32:00,41.0,-99.9,-100.00,WSW,247,1.0,3.0,-999,-99.99,,,-99.99,,2013-02-25 16:32:00,
2013-02-25 08:42:00,41.0,-99.9,-100.00,WSW,247,1.0,3.0,-999,-99.99,,,-99.99,,2013-02-25 16:42:00,
2013-02-25 08:52:00,42.0,-99.9,-100.00,West,265,2.0,2.0,-999,-99.99,,,-99.99,,2013-02-25 16:52:00,
2013-02-25 09:02:00,42.0,-99.9,-100.00,West,265,2.0,2.0,-999,-99.99,,,-99.99,,2013-02-25 17:02:00,
2013-02-25 09:32:00,42.0,-99.9,-100.00,NNE,31,3.0,6.0,-999,-99.99,,,-99.99,,2013-02-25 17:32:00,
2013-02-25 09:42:00,42.0,-99.9,-100.00,NNE,31,3.0,6.0,-999,-99.99,,,-99.99,,2013-02-25 17:42:00,
2013-02-25 09:52:00,42.0,-99.9,-100.00,NNE,31,3.0,6.0,-999,-99.99,,,-99.99,,2013-02-25 17:52:00,
2013-02-25 10:33:00,44.0,-99.9,-100.00,West,276,8.0,10.0,-999,-99.99,,,-99.99,,2013-02-25 18:33:00,
2013-02-25 10:42:00,44.0,-99.9,-100.00,West,276,8.0,10.0,-999,-99.99,,,-99.99,,2013-02-25 18:42:00,
2013-02-25 10:52:00,44.0,-99.9,-100.00,West,276,8.0,10.0,-999,-99.99,,,-99.99,,2013-02-25 18:52:00,
2013-02-25 11:32:00,44.0,-99.9,-100.00,WNW,292,8.0,14.0,-999,-99.99,,,-99.99,,2013-02-25 19:32:00,
2013-02-25 11:42:00,44.0,-99.9,-100.00,WNW,292,8.0,14.0,-999,-99.99,,,-99.99,,2013-02-25 19:42:00,
2013-02-25 11:52:00,44.0,-99.9,-100.00,WNW,292,8.0,14.0,-999,-99.99,,,-99.99,,2013-02-25 19:52:00,
2013-02-25 12:32:00,43.0,-99.9,-100.00,West,264,7.0,11.0,-999,-99.99,,,-99.99,,2013-02-25 20:32:00,
2013-02-25 12:42:00,43.0,-99.9,-100.00,West,264,7.0,11.0,-999,-99.99,,,-99.99,,2013-02-25 20:42:00,
2013-02-25 12:52:00,43.0,-99.9,-100.00,West,264,7.0,11.0,-999,-99.99,,,-99.99,,2013-02-25 20:52:00,
2013-02-25 14:02:00,47.0,-99.9,-100.00,West,270,6.0,21.0,-999,-99.99,,,-99.99,,2013-02-25 22:02:00,
2013-02-25 14:11:00,47.0,-99.9,-100.00,West,270,6.0,21.0,-999,-99.99,,,-99.99,,2013-02-25 22:11:00,
2013-02-25 14:22:00,47.0,-99.9,-100.00,West,270,6.0,21.0,-999,-99.99,,,-99.99,,2013-02-25 22:22:00,
2013-02-25 14:32:00,44.0,-99.9,-100.00,West,264,11.0,12.0,-999,-99.99,,,-99.99,,2013-02-25 22:32:00,
2013-02-25 14:42:00,44.0,-99.9,-100.00,West,264,11.0,12.0,-999,-99.99,,,-99.99,,2013-02-25 22:42:00,
2013-02-25 14:52:00,44.0,-99.9,-100.00,West,264,11.0,12.0,-999,-99.99,,,-99.99,,2013-02-25 22:52:00,
2013-02-25 15:10:00,40.0,-99.9,-100.00,WSW,238,9.0,18.0,-999,-99.99,,,-99.99,,2013-02-25 23:10:00,
2013-02-25 15:32:00,42.0,-99.9,-100.00,West,263,6.0,10.0,-999,-99.99,,,-99.99,,2013-02-25 23:32:00,
2013-02-25 15:42:00,42.0,-99.9,-100.00,West,263,6.0,10.0,-999,-99.99,,,-99.99,,2013-02-25 23:42:00,
2013-02-25 15:52:00,40.0,-99.9,-100.00,WSW,238,9.0,18.0,-999,-99.99,,,-99.99,,2013-02-25 23:52:00,
2013-02-25 16:02:00,40.0,-99.9,-100.00,WSW,238,9.0,18.0,-999,-99.99,,,-99.99,,2013-02-26 00:02:00,
2013-02-25 16:22:00,42.0,-99.9,-100.00,WSW,248,6.0,9.0,-999,-99.99,,,-99.99,,2013-02-26 00:22:00,
2013-02-25 16:32:00,43.0,-99.9,-100.00,WNW,294,3.0,7.0,-999,-99.99,,,-99.99,,2013-02-26 00:32:00,
2013-02-25 16:42:00,43.0,-99.9,-100.00,WNW,294,3.0,7.0,-999,-99.99,,,-99.99,,2013-02-26 00:42:00,
2013-02-25 16:52:00,43.0,-99.9,-100.00,WNW,294,3.0,7.0,-999,-99.99,,,-99.99,,2013-02-26 00:52:00,
2013-02-25 17:32:00,43.0,-99.9,-100.00,WNW,289,0.0,11.0,-999,-99.99,,,-99.99,,2013-02-26 01:32:00,
2013-02-25 17:42:00,43.0,-99.9,-100.00,WNW,289,0.0,11.0,-999,-99.99,,,-99.99,,2013-02-26 01:42:00,
2013-02-25 17:52:00,43.0,-99.9,-100.00,WNW,289,0.0,11.0,-999,-99.99,,,-99.99,,2013-02-26 01:52:00,
2013-02-25 18:02:00,41.0,-99.9,-100.00,North,353,2.0,6.0,-999,-99.99,,,-99.99,,2013-02-26 02:02:00,
2013-02-25 18:12:00,41.0,-99.9,-100.00,North,353,2.0,6.0,-999,-99.99,,,-99.99,,2013-02-26 02:12:00,
2013-02-25 18:22:00,43.0,-99.9,-100.00,NNE,13,0.0,2.0,-999,-99.99,,,-99.99,,2013-02-26 02:22:00,
2013-02-25 18:32:00,40.0,-99.9,-100.00,SSW,209,2.0,3.0,-999,-99.99,,,-99.99,,2013-02-26 02:32:00,
2013-02-25 18:42:00,40.0,-99.9,-100.00,SSW,209,2.0,3.0,-999,-99.99,,,-99.99,,2013-02-26 02:42:00,
2013-02-25 18:52:00,40.0,-99.9,-100.00,SSW,209,2.0,3.0,-999,-99.99,,,-99.99,,2013-02-26 02:52:00,
2013-02-25 19:00:00,41.0,-99.9,-100.00,East,83,0.0,5.0,-999,-99.99,,,-99.99,,2013-02-26 03:00:00,
2013-02-25 19:32:00,42.0,-99.9,-100.00,North,6,1.0,5.0,-999,-99.99,,,-99.99,,2013-02-26 03:32:00,
2013-02-25 19:42:00,42.0,-99.9,-100.00,North,6,1.0,5.0,-999,-99.99,,,-99.99,,2013-02-26 03:42:00,
2013-02-25 19:52:00,41.0,-99.9,-100.00,East,83,0.0,5.0,-999,-99.99,,,-99.99,,2013-02-26 03:52:00,
2013-02-25 20:22:00,40.0,-99.9,-100.00,West,260,3.0,4.0,-999,-99.99,,,-99.99,,2013-02-26 04:22:00,
2013-02-25 20:32:00,39.0,-99.9,-100.00,West,263,6.0,8.0,-999,-99.99,,,-99.99,,2013-02-26 04:32:00,
2013-02-25 20:43:00,39.0,-99.9,-100.00,West,263,6.0,8.0,-999,-99.99,,,-99.99,,2013-02-26 04:43:00,
2013-02-25 20:52:00,39.0,-99.9,-100.00,West,263,6.0,8.0,-999,-99.99,,,-99.99,,2013-02-26 04:52:00,
2013-02-25 21:01:00,41.0,-99.9,-100.00,NW,317,3.0,11.0,-999,-99.99,,,-99.99,,2013-02-26 05:01:00,
2013-02-25 21:12:00,41.0,-99.9,-100.00,NW,317,3.0,11.0,-999,-99.99,,,-99.99,,2013-02-26 05:12:00,
2013-02-25 21:32:00,39.0,-99.9,-100.00,WSW,238,7.0,11.0,-999,-99.99,,,-99.99,,2013-02-26 05:32:00,
2013-02-25 21:43:00,39.0,-99.9,-100.00,WSW,238,7.0,11.0,-999,-99.99,,,-99.99,,2013-02-26 05:43:00,
2013-02-25 21:52:00,39.0,-99.9,-100.00,WSW,238,7.0,11.0,-999,-99.99,,,-99.99,,2013-02-26 05:52:00,
2013-02-25 22:00:00,39.0,-99.9,-100.00,West,268,6.0,12.0,-999,-99.99,,,-99.99,,2013-02-26 06:00:00,
2013-02-25 22:22:00,39.0,-99.9,-100.00,WNW,286,6.0,16.0,-999,-99.99,,,-99.99,,2013-02-26 06:22:00,
2013-02-25 22:32:00,40.0,-99.9,-100.00,West,266,10.0,12.0,-999,-99.99,,,-99.99,,2013-02-26 06:32:00,
2013-02-25 22:42:00,40.0,-99.9,-100.00,West,266,10.0,12.0,-999,-99.99,,,-99.99,,2013-02-26 06:42:00,
2013-02-25 22:52:00,39.0,-99.9,-100.00,West,268,6.0,12.0,-999,-99.99,,,-99.99,,2013-02-26 06:52:00,
2013-02-25 23:22:00,40.0,-99.9,-100.00,WSW,251,12.0,15.0,-999,-99.99,,,-99.99,,2013-02-26 07:22:00,
2013-02-25 23:32:00,40.0,-99.9,-100.00,WNW,291,7.0,12.0,-999,-99.99,,,-99.99,,2013-02-26 07:32:00,
2013-02-25 23:42:00,40.0,-99.9,-100.00,WNW,291,7.0,12.0,-999,-99.99,,,-99.99,,2013-02-26 07:42:00,
2013-02-25 23:52:00,40.0,-99.9,-100.00,WNW,291,7.0,12.0,-999,-99.99,,,-99.99,,2013-02-26 07:52:00,